CW5210 Weather Reports


time (UTC)temp
F
wind
direction
speed
knots
gust
knots
rain 1hr
in
rain 24hr
in
rain mn
in
humidity
%
barometer
mb
20260505063031 56 166 1.7 6.1 0.00 0.00 0.00 56 1009.1
20260505061539 57 127 0.9 6.1 0.00 0.00 0.00 56 1008.9
20260505060035 57 0 0.9 4.3 0.00 0.00 0.00 54 1008.6
20260505054534 58 131 0.9 5.2 0.00 0.00 0.00 52 1008.3
20260505053035 59 177 0.9 7.8 0.00 0.00 0.00 49 1008.2
20260505051532 59 182 1.7 5.2 0.00 0.00 0.00 47 1007.9
20260505041534 60 0 0.0 0.9 0.00 0.00 0.00 44 1007.6
20260505040030 61 0 0.0 0.0 0.00 0.00 0.00 42 1007.3
20260505034534 62 0 0.0 2.6 0.00 0.00 0.00 42 1006.9
20260505033036 63 0 0.0 3.5 0.00 0.00 0.00 43 1006.7
20260505031532 63 0 0.9 6.1 0.00 0.00 0.00 40 1006.5
20260505030032 63 0 0.0 1.7 0.00 0.00 0.00 36 1005.9
20260505024540 64 0 0.0 1.7 0.00 0.00 0.00 36 1005.7
20260505023034 66 0 0.0 1.7 0.00 0.00 0.00 36 1005.6
20260505021536 66 0 0.0 0.9 0.00 0.00 0.00 35 1005.5
20260505020033 68 0 0.0 0.9 0.00 0.00 0.00 33 1005.5
20260505014538 69 0 0.0 2.6 0.00 0.00 0.00 30 1005.3
20260505013033 69 0 0.0 3.5 0.00 0.00 0.00 29 1005.4
20260505011533 69 0 0.0 1.7 0.00 0.00 0.00 30 1005.6
20260505010036 69 0 0.0 3.5 0.00 0.00 0.00 32 1005.6
20260505004536 70 169 0.0 4.3 0.00 0.00 0.00 30 1005.7
20260505003032 72 181 0.9 4.3 0.00 0.00 0.00 28 1005.9
20260505001546 72 186 0.9 4.3 0.00 0.00 0.00 30 1006.0
20260505000041 72 188 1.7 5.2 0.00 0.00 0.00 29 1006.2
20260504234536 71 183 1.7 5.2 0.00 0.00 0.00 31 1006.2
20260504233037 70 163 1.7 7.0 0.00 0.00 0.00 31 1006.4
20260504231548 72 153 1.7 7.0 0.00 0.00 0.00 29 1006.5
20260504230033 76 252 0.0 7.0 0.00 0.00 0.00 25 1006.6
20260504224536 74 177 0.9 9.6 0.00 0.00 0.00 27 1006.5
20260504223035 74 214 1.7 7.8 0.00 0.00 0.00 29 1006.5
20260504221535 77 225 1.7 7.8 0.00 0.00 0.00 26 1006.3
20260504220036 78 238 1.7 7.0 0.00 0.00 0.00 20 1006.5
20260504214532 78 352 1.7 6.1 0.00 0.00 0.00 22 1006.5
20260504213032 79 325 0.9 3.5 0.00 0.00 0.00 21 1006.8
20260504211534 77 277 0.0 7.8 0.00 0.00 0.00 25 1006.9
20260504210050 77 202 0.9 3.5 0.00 0.00 0.00 25 1007.0
20260504204531 77 270 0.9 5.2 0.00 0.00 0.00 25 1007.3
20260504203034 77 82 0.0 3.5 0.00 0.00 0.00 25 1007.5
20260504201530 77 229 0.9 3.5 0.00 0.00 0.00 25 1007.4
20260504200033 78 294 0.9 4.3 0.00 0.00 0.00 24 1007.6
20260504194546 77 294 0.0 7.8 0.00 0.00 0.00 25 1007.6
20260504193032 76 237 0.0 2.6 0.00 0.00 0.00 32 1007.9
20260504191541 75 0 0.0 2.6 0.00 0.00 0.00 27 1008.0
20260504190033 76 0 0.0 2.6 0.00 0.00 0.00 28 1008.3
20260504184538 75 0 0.0 4.3 0.00 0.00 0.00 27 1008.4
20260504183030 74 292 0.0 2.6 0.00 0.00 0.00 30 1008.6
20260504181530 73 211 0.0 3.5 0.00 0.00 0.00 29 1009.0
20260504180040 73 322 0.9 2.6 0.00 0.00 0.00 30 1009.1
20260504174529 72 0 0.0 3.5 0.00 0.00 0.00 35 1009.3
20260504173036 71 157 0.9 4.3 0.00 0.00 0.00 31 1009.4
20260504171531 70 0 0.0 2.6 0.00 0.00 0.00 33 1009.4
20260504081532 55 47 0.0 1.7 0.00 0.00 0.00 35 1008.6